Weather Roundup
Issued by NWS Chicago, IL

Home | Current Version | Previous Version | Text Only | Print | Product List | Glossary Off
Versions: 1 2 3 4 5 6 7 8 9 10 11 12 13 14 15 16 17 18 19 20 21 22 23 24 25 26 27 28 29 30 31 32 33 34 35 36 37 38 39 40 41 42 43 44 45 46 47 48 49 50

000
NZUS59 KLOT 210703
HRRLOT

CHICAGO AREA WEATHER ROUNDUP
NATIONAL WEATHER SERVICE CHICAGO/ROMEOVILLE IL
200 AM CDT MON AUG 21 2017

NOTE: "FAIR" INDICATES FEW OR NO CLOUDS BELOW 12,000 FEET WITH NO
SIGNIFICANT WEATHER AND/OR OBSTRUCTIONS TO VISIBILITY.

* THESE STATIONS ARE NOT UNDER NWS QUALITY CONTROL. THEY ALSO MAY NOT
  REPORT WEATHER SUCH AS PRECIPITATION OR FOG.

ILZ005-006-012>014-019>023-210800-
NORTHEAST ILLINOIS

CITY           SKY/WX    TMP DP  RH WIND       PRES   REMARKS
OHARE          CLOUDY    74  69  85 S9        30.03F
MIDWAY         CLOUDY    76  72  87 SE5       30.05F
AURORA         PTCLDY    71  70  96 SE6       30.04F
LANSING*       CLOUDY    74  65  74 CALM      30.06S
JOLIET*        PTCLDY    73  72  96 SE6       30.05F
WAUKEGAN       MOCLDY    70  70 100 CALM      30.04S FOG
DUPAGE AIRPORT CLOUDY    71  71 100 S9        30.03F
WHEELING       CLOUDY    75  68  78 S5        30.05F
MORRIS*        MOCLDY    72  70  93 E5        30.04F
NORTHERLY ISL    N/A     74  68  81 S8          N/A
$$

WIZ051-052-058>065-066-070>072-210800-
SOUTHEAST WISCONSIN

CITY           SKY/WX    TMP DP  RH WIND       PRES   REMARKS
MILWAUKEE      MOCLDY    70  66  87 CALM      30.04F
KENOSHA*       CLOUDY    70  67  90 W5        30.05S
RACINE*        CLOUDY    71  69  93 CALM      30.06S
$$

INZ001>003-010>013-019-020-210800-
NORTHWEST INDIANA

CITY           SKY/WX    TMP DP  RH WIND       PRES   REMARKS
GARY*          LGT RAIN  76  67  72 S3        30.07S
MICHIGAN CITY* NOT AVBL
RENSSELAER*    NOT AVBL
VALPARAISO     LGT RAIN  74  69  85 S6        30.09R
$$

LMZ740>746-210800-
SOUTHERN LAKE MICHIGAN

STATION/POSITION TIME  SKY/WX   TEMP WIND        PRES    VSBY
                                AIR  DIR/SP/G
                 (UTC)          (F)  (DEG/KT/KT) (MB)    (MI)
HARRISON CRIB    0640            75  190/ 19/ 21   N/A
BURNHAM HARBOR   NOT AVBL
CALUMET HARBOR   0630            75  230/  3/  6 1017.4R
BURNS HARBOR     0640            76  190/ 10/ 14 1018.3S
MICHIGAN CITY    0640            77  160/ 10/ 12   N/A
$$

ABBREVIATIONS USED IN REMARKS
   TC - TEMPERATURE IN CELSIUS
  WCI - WIND CHILL INDEX
   HX - HEAT INDEX
  VSB - VISIBILITY
$$




USA.gov is the U.S. government's official web portal to all federal, state and local government web resources and services.